Time,TemperatureF,DewpointF,PressureIn,WindDirection,WindDirectionDegrees,WindSpeedMPH,WindSpeedGustMPH,Humidity,HourlyPrecipIn,Conditions,Clouds,dailyrainin,SoftwareType,DateUTC
2013-04-13 00:04:00,8.0,1.0,30.28,ESE,105,0.0,1.0,72,0.00,,,0.04,,2013-04-13 08:04:00,
2013-04-13 00:13:00,8.0,1.0,30.28,ESE,105,0.0,1.0,72,0.00,,,0.04,,2013-04-13 08:13:00,
2013-04-13 00:24:00,7.0,0.0,30.28,ESE,105,0.0,1.0,73,0.00,,,0.04,,2013-04-13 08:24:00,
2013-04-13 00:33:00,6.0,0.0,30.28,ESE,105,0.0,0.0,74,0.00,,,0.04,,2013-04-13 08:33:00,
2013-04-13 00:43:00,6.0,0.0,30.28,ESE,105,0.0,0.0,74,0.00,,,0.04,,2013-04-13 08:43:00,
2013-04-13 00:53:00,5.0,-1.0,30.28,ESE,105,0.0,1.0,75,0.00,,,0.04,,2013-04-13 08:53:00,
2013-04-13 01:04:00,5.0,-1.0,30.29,ESE,105,0.0,1.0,77,0.00,,,0.04,,2013-04-13 09:04:00,
2013-04-13 01:12:00,5.0,-1.0,30.29,ESE,105,0.0,1.0,77,0.00,,,0.04,,2013-04-13 09:12:00,
2013-04-13 01:22:00,4.0,-2.0,30.29,ESE,105,0.0,1.0,76,0.00,,,0.04,,2013-04-13 09:22:00,
2013-04-13 01:34:00,4.0,-2.0,30.29,ESE,105,0.0,1.0,77,0.00,,,0.04,,2013-04-13 09:34:00,
2013-04-13 01:44:00,4.0,-2.0,30.29,ESE,105,0.0,1.0,77,0.00,,,0.04,,2013-04-13 09:44:00,
2013-04-13 02:04:00,3.0,-2.0,30.29,ESE,105,0.0,1.0,78,0.00,,,0.04,,2013-04-13 10:04:00,
2013-04-13 02:14:00,3.0,-3.0,30.30,ESE,105,0.0,1.0,77,0.00,,,0.04,,2013-04-13 10:14:00,
2013-04-13 02:23:00,3.0,-3.0,30.30,ESE,105,0.0,1.0,77,0.00,,,0.04,,2013-04-13 10:23:00,
2013-04-13 02:35:00,2.0,-3.0,30.30,ESE,105,0.0,1.0,78,0.00,,,0.04,,2013-04-13 10:35:00,
2013-04-13 02:44:00,2.0,-3.0,30.30,ESE,105,0.0,1.0,78,0.00,,,0.04,,2013-04-13 10:44:00,
2013-04-13 02:53:00,1.0,-4.0,30.30,ESE,105,0.0,0.0,80,0.00,,,0.04,,2013-04-13 10:53:00,
2013-04-13 03:04:00,1.0,-4.0,30.31,ESE,105,0.0,0.0,79,0.00,,,0.04,,2013-04-13 11:04:00,
2013-04-13 03:12:00,1.0,-4.0,30.31,ESE,105,0.0,0.0,79,0.00,,,0.04,,2013-04-13 11:12:00,
2013-04-13 03:23:00,0.0,-5.0,30.31,ESE,105,0.0,0.0,79,0.00,,,0.04,,2013-04-13 11:23:00,
2013-04-13 03:33:00,0.0,-5.0,30.31,ESE,105,0.0,0.0,79,0.00,,,0.04,,2013-04-13 11:33:00,
2013-04-13 03:43:00,0.0,-5.0,30.31,ESE,105,0.0,0.0,79,0.00,,,0.04,,2013-04-13 11:43:00,
2013-04-13 03:53:00,-1.0,-6.0,30.31,ESE,105,0.0,0.0,79,0.00,,,0.04,,2013-04-13 11:53:00,
2013-04-13 04:05:00,-1.0,-5.0,30.32,ESE,105,0.0,1.0,83,0.00,,,0.04,,2013-04-13 12:05:00,
2013-04-13 04:13:00,-1.0,-5.0,30.32,ESE,105,0.0,1.0,83,0.00,,,0.04,,2013-04-13 12:13:00,
2013-04-13 04:23:00,-1.0,-5.0,30.32,ESE,105,0.0,1.0,81,0.00,,,0.04,,2013-04-13 12:23:00,
2013-04-13 04:34:00,-2.0,-7.0,30.32,ESE,105,0.0,1.0,80,0.00,,,0.04,,2013-04-13 12:34:00,
2013-04-13 04:45:00,-2.0,-7.0,30.32,ESE,105,0.0,1.0,80,0.00,,,0.04,,2013-04-13 12:45:00,
2013-04-13 04:52:00,-2.0,-6.0,30.32,ESE,105,0.0,0.0,82,0.00,,,0.04,,2013-04-13 12:52:00,
2013-04-13 05:04:00,-2.0,-6.0,30.33,ESE,105,0.0,0.0,81,0.00,,,0.04,,2013-04-13 13:04:00,
2013-04-13 05:13:00,-2.0,-6.0,30.33,ESE,105,0.0,0.0,81,0.00,,,0.04,,2013-04-13 13:13:00,
2013-04-13 05:22:00,-3.0,-7.0,30.33,ESE,105,0.0,0.0,81,0.00,,,0.04,,2013-04-13 13:22:00,
2013-04-13 05:33:00,-3.0,-7.0,30.33,ESE,105,0.0,1.0,84,0.00,,,0.04,,2013-04-13 13:33:00,
2013-04-13 05:44:00,-3.0,-7.0,30.33,ESE,105,0.0,1.0,84,0.00,,,0.04,,2013-04-13 13:44:00,
2013-04-13 05:53:00,-2.0,-6.0,30.33,ESE,105,0.0,0.0,83,0.00,,,0.04,,2013-04-13 13:53:00,
2013-04-13 06:03:00,-3.0,-7.0,30.33,ESE,105,0.0,0.0,81,0.00,,,0.04,,2013-04-13 14:03:00,
2013-04-13 06:12:00,-3.0,-7.0,30.33,ESE,105,0.0,0.0,81,0.00,,,0.04,,2013-04-13 14:12:00,
2013-04-13 06:22:00,-5.0,-9.0,30.33,ESE,105,0.0,0.0,81,0.00,,,0.04,,2013-04-13 14:22:00,
2013-04-13 06:35:00,-5.0,-9.0,30.34,ESE,105,0.0,0.0,82,0.00,,,0.04,,2013-04-13 14:35:00,
2013-04-13 06:44:00,-5.0,-9.0,30.34,ESE,105,0.0,0.0,82,0.00,,,0.04,,2013-04-13 14:44:00,
2013-04-13 06:57:00,-6.0,-10.0,30.35,ESE,105,0.0,0.0,83,0.00,,,0.04,,2013-04-13 14:57:00,
2013-04-13 07:03:00,-5.0,-8.0,30.35,ESE,105,0.0,1.0,85,0.00,,,0.04,,2013-04-13 15:03:00,
2013-04-13 07:13:00,-5.0,-8.0,30.35,ESE,105,0.0,1.0,85,0.00,,,0.04,,2013-04-13 15:13:00,
2013-04-13 07:25:00,-4.0,-8.0,30.35,ESE,105,0.0,0.0,84,0.00,,,0.04,,2013-04-13 15:25:00,
2013-04-13 07:34:00,-5.0,-9.0,30.35,ESE,105,0.0,1.0,83,0.00,,,0.04,,2013-04-13 15:34:00,
2013-04-13 07:56:00,-5.0,-9.0,30.35,ESE,105,0.0,1.0,82,0.00,,,0.04,,2013-04-13 15:56:00,
2013-04-13 08:03:00,-5.0,-9.0,30.35,ESE,105,0.0,0.0,83,0.00,,,0.04,,2013-04-13 16:03:00,
2013-04-13 08:13:00,-5.0,-9.0,30.35,ESE,105,0.0,0.0,83,0.00,,,0.04,,2013-04-13 16:13:00,
2013-04-13 08:23:00,-3.0,-7.0,30.36,ESE,105,0.0,1.0,84,0.00,,,0.04,,2013-04-13 16:23:00,
2013-04-13 08:33:00,-1.0,-5.0,30.37,ESE,105,0.0,0.0,84,0.00,,,0.04,,2013-04-13 16:33:00,
2013-04-13 08:43:00,-1.0,-5.0,30.37,ESE,105,0.0,0.0,84,0.00,,,0.04,,2013-04-13 16:43:00,
2013-04-13 08:54:00,2.0,-2.0,30.37,ESE,105,0.0,0.0,81,0.00,,,0.04,,2013-04-13 16:54:00,
2013-04-13 09:03:00,4.0,-2.0,30.37,ESE,105,0.0,0.0,76,0.00,,,0.04,,2013-04-13 17:03:00,
2013-04-13 09:14:00,4.0,-2.0,30.37,ESE,105,0.0,0.0,76,0.00,,,0.04,,2013-04-13 17:14:00,
2013-04-13 09:23:00,6.0,0.0,30.38,ESE,105,0.0,0.0,74,0.00,,,0.04,,2013-04-13 17:23:00,
2013-04-13 09:43:00,8.0,1.0,30.38,ESE,105,0.0,0.0,71,0.00,,,0.04,,2013-04-13 17:43:00,
2013-04-13 10:02:00,11.0,1.0,30.37,NNE,32,0.0,3.0,64,0.00,,,0.04,,2013-04-13 18:02:00,
2013-04-13 10:13:00,10.0,0.0,30.37,ENE,57,0.0,2.0,64,0.00,,,0.04,,2013-04-13 18:13:00,
2013-04-13 10:23:00,11.0,1.0,30.37,ENE,59,0.0,2.0,63,0.00,,,0.04,,2013-04-13 18:23:00,
2013-04-13 10:32:00,11.0,1.0,30.38,East,99,1.0,3.0,63,0.01,,,0.05,,2013-04-13 18:32:00,
2013-04-13 10:42:00,11.0,1.0,30.38,East,99,1.0,3.0,63,0.01,,,0.05,,2013-04-13 18:42:00,
2013-04-13 10:53:00,12.0,2.0,30.37,East,100,0.0,4.0,62,0.01,,,0.05,,2013-04-13 18:53:00,
2013-04-13 11:02:00,12.0,1.0,30.38,ESE,123,0.0,3.0,61,0.01,,,0.05,,2013-04-13 19:02:00,
2013-04-13 11:12:00,12.0,1.0,30.38,ESE,123,0.0,3.0,61,0.01,,,0.05,,2013-04-13 19:12:00,
2013-04-13 11:22:00,13.0,1.0,30.38,ESE,102,1.0,5.0,59,0.01,,,0.05,,2013-04-13 19:22:00,
2013-04-13 11:32:00,13.0,1.0,30.38,East,97,1.0,5.0,59,0.00,,,0.05,,2013-04-13 19:32:00,
2013-04-13 11:42:00,13.0,1.0,30.38,East,97,1.0,5.0,59,0.00,,,0.05,,2013-04-13 19:42:00,
2013-04-13 11:53:00,13.0,1.0,30.38,ESE,105,0.0,3.0,59,0.00,,,0.05,,2013-04-13 19:53:00,
2013-04-13 12:01:00,14.0,2.0,30.37,ESE,109,0.0,5.0,57,0.00,,,0.05,,2013-04-13 20:01:00,
2013-04-13 12:11:00,14.0,2.0,30.37,ESE,109,0.0,5.0,57,0.00,,,0.05,,2013-04-13 20:11:00,
2013-04-13 12:22:00,15.0,2.0,30.37,NE,51,1.0,5.0,56,0.00,,,0.05,,2013-04-13 20:22:00,
2013-04-13 12:32:00,15.0,2.0,30.37,East,96,1.0,5.0,56,0.00,,,0.05,,2013-04-13 20:32:00,
2013-04-13 12:42:00,15.0,2.0,30.37,East,96,1.0,5.0,56,0.00,,,0.05,,2013-04-13 20:42:00,
2013-04-13 12:52:00,16.0,2.0,30.37,NE,37,1.0,4.0,54,0.00,,,0.05,,2013-04-13 20:52:00,
2013-04-13 13:02:00,17.0,6.0,30.36,ENE,57,1.0,3.0,61,0.00,,,0.05,,2013-04-13 21:02:00,
2013-04-13 13:12:00,17.0,6.0,30.36,ENE,57,1.0,3.0,61,0.00,,,0.05,,2013-04-13 21:12:00,
2013-04-13 13:22:00,18.0,4.0,30.37,NNE,19,0.0,3.0,54,0.00,,,0.05,,2013-04-13 21:22:00,
2013-04-13 14:52:00,21.0,4.0,30.35,East,101,1.0,4.0,48,0.00,,,0.04,,2013-04-13 22:52:00,
2013-04-13 15:02:00,21.0,5.0,30.35,East,83,1.0,5.0,50,0.00,,,0.03,,2013-04-13 23:02:00,
2013-04-13 15:12:00,21.0,5.0,30.35,East,83,1.0,5.0,50,0.00,,,0.03,,2013-04-13 23:12:00,
2013-04-13 15:22:00,22.0,5.0,30.34,East,82,3.0,7.0,48,0.00,,,0.03,,2013-04-13 23:22:00,
2013-04-13 15:32:00,22.0,5.0,30.34,ESE,119,2.0,7.0,48,0.00,,,0.03,,2013-04-13 23:32:00,
2013-04-13 15:41:00,22.0,5.0,30.34,ESE,119,2.0,7.0,48,0.00,,,0.03,,2013-04-13 23:41:00,
2013-04-13 15:52:00,22.0,5.0,30.34,East,82,1.0,7.0,48,0.00,,,0.03,,2013-04-13 23:52:00,
2013-04-13 16:01:00,23.0,6.0,30.34,ESE,117,2.0,5.0,47,0.00,,,0.02,,2013-04-14 00:01:00,
2013-04-13 16:11:00,23.0,6.0,30.34,ESE,117,2.0,5.0,47,0.00,,,0.02,,2013-04-14 00:11:00,
2013-04-13 16:22:00,24.0,6.0,30.33,ENE,65,0.0,8.0,46,0.00,,,0.02,,2013-04-14 00:22:00,
2013-04-13 16:31:00,24.0,7.0,30.33,South,172,1.0,5.0,47,0.00,,,0.02,,2013-04-14 00:31:00,
2013-04-13 16:42:00,24.0,7.0,30.33,South,172,1.0,5.0,47,0.00,,,0.02,,2013-04-14 00:42:00,
2013-04-13 16:52:00,24.0,7.0,30.33,South,172,1.0,5.0,47,0.00,,,0.02,,2013-04-14 00:52:00,
2013-04-13 17:02:00,24.0,7.0,30.33,East,90,3.0,9.0,48,0.00,,,0.02,,2013-04-14 01:02:00,
2013-04-13 17:12:00,24.0,7.0,30.33,East,90,3.0,9.0,48,0.00,,,0.02,,2013-04-14 01:12:00,
2013-04-13 17:22:00,23.0,4.0,30.33,ESE,106,0.0,7.0,44,0.00,,,0.01,,2013-04-14 01:22:00,
2013-04-13 18:02:00,23.0,6.0,30.32,SE,136,0.0,7.0,47,0.00,,,0.01,,2013-04-14 02:02:00,
2013-04-13 18:12:00,23.0,6.0,30.32,SE,136,0.0,7.0,47,0.00,,,0.01,,2013-04-14 02:12:00,
2013-04-13 18:21:00,23.0,7.0,30.33,East,96,2.0,9.0,49,0.00,,,0.01,,2013-04-14 02:21:00,
2013-04-13 18:32:00,23.0,7.0,30.33,East,96,2.0,9.0,49,0.00,,,0.01,,2013-04-14 02:32:00,
2013-04-13 18:42:00,23.0,7.0,30.33,East,96,2.0,9.0,49,0.00,,,0.01,,2013-04-14 02:42:00,
2013-04-13 18:53:00,23.0,6.0,30.33,East,80,3.0,12.0,47,0.00,,,0.01,,2013-04-14 02:53:00,
2013-04-13 19:02:00,23.0,6.0,30.33,ESE,106,0.0,6.0,47,0.00,,,0.01,,2013-04-14 03:02:00,
2013-04-13 19:12:00,23.0,6.0,30.33,ESE,106,0.0,6.0,47,0.00,,,0.01,,2013-04-14 03:12:00,
2013-04-13 19:22:00,23.0,6.0,30.33,SE,126,0.0,5.0,47,0.00,,,0.01,,2013-04-14 03:22:00,
2013-04-13 19:33:00,23.0,6.0,30.33,SE,126,0.0,5.0,47,0.00,,,0.01,,2013-04-14 03:33:00,
2013-04-13 19:42:00,23.0,6.0,30.33,SE,126,0.0,5.0,47,0.00,,,0.01,,2013-04-14 03:42:00,
2013-04-13 19:52:00,23.0,5.0,30.32,East,82,0.0,2.0,46,0.00,,,0.01,,2013-04-14 03:52:00,
2013-04-13 20:02:00,23.0,4.0,30.33,ESE,117,0.0,4.0,44,0.00,,,0.01,,2013-04-14 04:02:00,
2013-04-13 20:12:00,23.0,4.0,30.33,ESE,117,0.0,4.0,44,0.00,,,0.01,,2013-04-14 04:12:00,
2013-04-13 20:22:00,23.0,4.0,30.34,ESE,114,0.0,2.0,44,0.00,,,0.01,,2013-04-14 04:22:00,
2013-04-13 20:32:00,23.0,4.0,30.34,ESE,114,0.0,2.0,44,0.00,,,0.01,,2013-04-14 04:32:00,
2013-04-13 20:42:00,23.0,4.0,30.34,ESE,114,0.0,2.0,44,0.00,,,0.01,,2013-04-14 04:42:00,
2013-04-13 20:52:00,22.0,5.0,30.35,SE,129,0.0,3.0,47,0.00,,,0.01,,2013-04-14 04:52:00,
2013-04-13 21:02:00,22.0,4.0,30.35,SE,139,0.0,3.0,46,0.00,,,0.01,,2013-04-14 05:02:00,
2013-04-13 21:12:00,22.0,4.0,30.35,SE,139,0.0,3.0,46,0.00,,,0.01,,2013-04-14 05:12:00,
2013-04-13 21:22:00,21.0,4.0,30.36,SE,138,0.0,2.0,47,0.00,,,0.01,,2013-04-14 05:22:00,
2013-04-13 21:32:00,21.0,4.0,30.36,SE,139,0.0,1.0,48,0.00,,,0.01,,2013-04-14 05:32:00,
2013-04-13 21:42:00,21.0,4.0,30.36,SE,139,0.0,1.0,48,0.00,,,0.01,,2013-04-14 05:42:00,
2013-04-13 21:52:00,20.0,4.0,30.37,SE,138,0.0,1.0,48,0.00,,,0.01,,2013-04-14 05:52:00,
2013-04-13 22:02:00,19.0,3.0,30.37,SE,139,0.0,0.0,50,0.00,,,0.01,,2013-04-14 06:02:00,
2013-04-13 22:12:00,19.0,3.0,30.37,SE,139,0.0,0.0,50,0.00,,,0.01,,2013-04-14 06:12:00,
2013-04-13 22:22:00,18.0,3.0,30.37,SE,138,0.0,0.0,52,0.00,,,0.01,,2013-04-14 06:22:00,
2013-04-13 22:32:00,18.0,3.0,30.38,SE,139,0.0,0.0,52,0.00,,,0.01,,2013-04-14 06:32:00,
2013-04-13 22:42:00,18.0,3.0,30.38,SE,139,0.0,0.0,52,0.00,,,0.01,,2013-04-14 06:42:00,
2013-04-13 22:52:00,17.0,5.0,30.38,SE,139,0.0,0.0,59,0.00,,,0.01,,2013-04-14 06:52:00,
2013-04-13 23:02:00,16.0,5.0,30.39,SE,139,0.0,0.0,61,0.00,,,0.01,,2013-04-14 07:02:00,
2013-04-13 23:12:00,16.0,5.0,30.39,SE,139,0.0,0.0,61,0.00,,,0.01,,2013-04-14 07:12:00,
2013-04-13 23:22:00,15.0,4.0,30.39,SE,138,0.0,0.0,62,0.00,,,0.01,,2013-04-14 07:22:00,
2013-04-13 23:32:00,14.0,4.0,30.39,SE,139,0.0,0.0,65,0.00,,,0.01,,2013-04-14 07:32:00,
2013-04-13 23:42:00,14.0,4.0,30.39,SE,139,0.0,0.0,65,0.00,,,0.01,,2013-04-14 07:42:00,
2013-04-13 23:52:00,14.0,5.0,30.40,SE,139,0.0,0.0,66,0.00,,,0.01,,2013-04-14 07:52:00,